Year,Month,Day,Hour,Minute,Value (Times are PST for temperature in C)
2015,09,14,00,00,14.80
2015,09,14,00,01,14.80
2015,09,14,00,02,14.80
2015,09,14,00,03,14.70
2015,09,14,00,04,14.70
2015,09,14,00,05,14.70
2015,09,14,00,06,14.70
2015,09,14,00,07,14.70
2015,09,14,00,08,14.70
2015,09,14,00,09,14.70
2015,09,14,00,10,14.70
2015,09,14,00,11,14.70
2015,09,14,00,12,14.70
2015,09,14,00,13,14.70
2015,09,14,00,14,14.70
2015,09,14,00,15,14.70
2015,09,14,00,16,14.60
2015,09,14,00,17,14.60
2015,09,14,00,18,14.60
2015,09,14,00,19,14.60
2015,09,14,00,20,14.60
2015,09,14,00,21,14.60
2015,09,14,00,22,14.60
2015,09,14,00,23,14.60
2015,09,14,00,24,14.60
2015,09,14,00,25,14.60
2015,09,14,00,27,14.60
2015,09,14,00,28,14.60
2015,09,14,00,29,14.60
2015,09,14,00,30,14.60
2015,09,14,00,31,14.60
2015,09,14,00,32,14.60
2015,09,14,00,33,14.60
2015,09,14,00,34,14.60
2015,09,14,00,35,14.60
2015,09,14,00,36,14.50
2015,09,14,00,37,14.50
2015,09,14,00,38,14.50
2015,09,14,00,39,14.50
2015,09,14,00,40,14.50
2015,09,14,00,41,14.50
2015,09,14,00,42,14.50
2015,09,14,00,43,14.50
2015,09,14,00,44,14.50
2015,09,14,00,45,14.50
2015,09,14,00,46,14.50
2015,09,14,00,47,14.50
2015,09,14,00,48,14.40
2015,09,14,00,49,14.40
2015,09,14,00,50,14.40
2015,09,14,00,51,14.40
2015,09,14,00,52,14.40
2015,09,14,00,53,14.40
2015,09,14,00,54,14.40
2015,09,14,00,55,14.40
2015,09,14,00,56,14.40
2015,09,14,00,57,14.40
2015,09,14,00,58,14.40
2015,09,14,00,59,14.30
2015,09,14,01,00,14.30
2015,09,14,01,01,14.30
2015,09,14,01,02,14.30
2015,09,14,01,03,14.30
2015,09,14,01,04,14.30
2015,09,14,01,05,14.30
2015,09,14,01,06,14.20
2015,09,14,01,07,14.20
2015,09,14,01,08,14.20
2015,09,14,01,09,14.20
2015,09,14,01,10,14.10
2015,09,14,01,11,14.10
2015,09,14,01,12,14.10
2015,09,14,01,13,14.10
2015,09,14,01,14,14.10
2015,09,14,01,15,14.10
2015,09,14,01,16,14.10
2015,09,14,01,17,14.00
2015,09,14,01,18,14.00
2015,09,14,01,19,14.00
2015,09,14,01,20,14.00
2015,09,14,01,21,14.00
2015,09,14,01,22,13.90
2015,09,14,01,23,13.90
2015,09,14,01,24,13.90
2015,09,14,01,25,13.90
2015,09,14,01,27,13.90
2015,09,14,01,28,13.90
2015,09,14,01,29,13.90
2015,09,14,01,30,13.90
2015,09,14,01,31,13.90
2015,09,14,01,32,13.90
2015,09,14,01,33,13.90
2015,09,14,01,34,13.90
2015,09,14,01,35,13.80
2015,09,14,01,36,13.80
2015,09,14,01,37,13.80
2015,09,14,01,38,13.80
2015,09,14,01,39,13.80
2015,09,14,01,40,13.80
2015,09,14,01,41,13.80
2015,09,14,01,42,13.80
2015,09,14,01,43,13.80
2015,09,14,01,44,13.80
2015,09,14,01,45,13.80
2015,09,14,01,46,13.70
2015,09,14,01,47,13.70
2015,09,14,01,48,13.70
2015,09,14,01,49,13.70
2015,09,14,01,50,13.70
2015,09,14,01,51,13.60
2015,09,14,01,52,13.60
2015,09,14,01,53,13.60
2015,09,14,01,54,13.60
2015,09,14,01,55,13.60
2015,09,14,01,56,13.60
2015,09,14,01,57,13.50
2015,09,14,01,58,13.50
2015,09,14,02,00,13.40
2015,09,14,02,01,13.40
2015,09,14,02,02,13.40
2015,09,14,02,03,13.40
2015,09,14,02,04,13.40
2015,09,14,02,05,13.40
2015,09,14,02,06,13.40
2015,09,14,02,07,13.30
2015,09,14,02,08,13.30
2015,09,14,02,09,13.30
2015,09,14,02,10,13.30
2015,09,14,02,11,13.30
2015,09,14,02,12,13.30
2015,09,14,02,14,13.30
2015,09,14,02,17,13.20
2015,09,14,02,19,13.20
2015,09,14,02,20,13.20
2015,09,14,02,21,13.20
2015,09,14,02,22,13.20
2015,09,14,02,23,13.20
2015,09,14,02,24,13.20
2015,09,14,02,25,13.20
2015,09,14,02,26,13.10
2015,09,14,02,27,13.10
2015,09,14,02,28,13.10
2015,09,14,02,30,13.10
2015,09,14,02,32,13.10
2015,09,14,02,33,13.10
2015,09,14,02,34,13.10
2015,09,14,02,35,13.10
2015,09,14,02,36,13.10
2015,09,14,02,38,13.10
2015,09,14,02,40,13.10
2015,09,14,02,41,13.00
2015,09,14,02,42,13.00
2015,09,14,02,43,13.00
2015,09,14,02,44,13.00
2015,09,14,02,45,13.00
2015,09,14,02,46,12.90
2015,09,14,02,47,12.90
2015,09,14,02,48,12.90
2015,09,14,02,49,12.90
2015,09,14,02,50,12.90
2015,09,14,02,51,12.90
2015,09,14,02,53,12.90
2015,09,14,02,54,12.90
2015,09,14,02,55,12.90
2015,09,14,02,56,12.90
2015,09,14,02,57,12.80
2015,09,14,02,58,12.90
2015,09,14,03,00,12.80
2015,09,14,03,01,12.80
2015,09,14,03,02,12.80
2015,09,14,03,03,12.80
2015,09,14,03,04,12.80
2015,09,14,03,05,12.90
2015,09,14,03,06,12.90
2015,09,14,03,07,12.90
2015,09,14,03,08,12.90
2015,09,14,03,09,12.90
2015,09,14,03,10,12.90
2015,09,14,03,11,12.90
2015,09,14,03,12,12.90
2015,09,14,03,13,12.90
2015,09,14,03,14,12.90
2015,09,14,03,15,12.90
2015,09,14,03,16,12.90
2015,09,14,03,17,12.90
2015,09,14,03,18,12.90
2015,09,14,03,19,12.90
2015,09,14,03,20,12.90
2015,09,14,03,21,12.90
2015,09,14,03,22,12.90
2015,09,14,03,23,12.80
2015,09,14,03,24,12.80
2015,09,14,03,27,12.80
2015,09,14,03,30,12.80
2015,09,14,03,31,12.80
2015,09,14,03,32,12.70
2015,09,14,03,33,12.70
2015,09,14,03,34,12.70
2015,09,14,03,35,12.70
2015,09,14,03,36,12.70
2015,09,14,03,37,12.70
2015,09,14,03,38,12.60
2015,09,14,03,39,12.60
2015,09,14,03,40,12.60
2015,09,14,03,41,12.60
2015,09,14,03,42,12.60
2015,09,14,03,43,12.60
2015,09,14,03,44,12.60
2015,09,14,03,45,12.50
2015,09,14,03,46,12.50
2015,09,14,03,47,12.50
2015,09,14,03,48,12.50
2015,09,14,03,49,12.40
2015,09,14,03,50,12.40
2015,09,14,03,51,12.40
2015,09,14,03,52,12.40
2015,09,14,03,53,12.40
2015,09,14,03,55,12.40
2015,09,14,03,56,12.40
2015,09,14,03,57,12.30
2015,09,14,03,58,12.30
2015,09,14,03,59,12.30
2015,09,14,04,00,12.30
2015,09,14,04,02,12.30
2015,09,14,04,04,12.30
2015,09,14,04,05,12.30
2015,09,14,04,06,12.30
2015,09,14,04,07,12.20
2015,09,14,04,08,12.20
2015,09,14,04,09,12.20
2015,09,14,04,11,12.20
2015,09,14,04,12,12.20
2015,09,14,04,13,12.20
2015,09,14,04,14,12.20
2015,09,14,04,15,12.20
2015,09,14,04,16,12.20
2015,09,14,04,17,12.20
2015,09,14,04,19,12.20
2015,09,14,04,20,12.20
2015,09,14,04,21,12.20
2015,09,14,04,22,12.20
2015,09,14,04,23,12.20
2015,09,14,04,24,12.20
2015,09,14,04,25,12.20
2015,09,14,04,26,12.20
2015,09,14,04,27,12.20
2015,09,14,04,28,12.20
2015,09,14,04,29,12.20
2015,09,14,04,30,12.20
2015,09,14,04,31,12.20
2015,09,14,04,32,12.20
2015,09,14,04,33,12.20
2015,09,14,04,34,12.20
2015,09,14,04,35,12.20
2015,09,14,04,36,12.20
2015,09,14,04,39,12.20
2015,09,14,04,42,12.10
2015,09,14,04,43,12.10
2015,09,14,04,44,12.10
2015,09,14,04,45,12.10
2015,09,14,04,46,12.10
2015,09,14,04,47,12.00
2015,09,14,04,48,12.00
2015,09,14,04,49,12.00
2015,09,14,04,50,12.00
2015,09,14,04,51,11.90
2015,09,14,04,52,11.90
2015,09,14,04,53,11.90
2015,09,14,04,54,11.90
2015,09,14,04,56,11.80
2015,09,14,04,57,11.80
2015,09,14,04,58,11.80
2015,09,14,04,59,11.80
2015,09,14,05,00,11.80
2015,09,14,05,02,11.70
2015,09,14,05,03,11.70
2015,09,14,05,04,11.70
2015,09,14,05,05,11.70
2015,09,14,05,06,11.70
2015,09,14,05,07,11.70
2015,09,14,05,08,11.60
2015,09,14,05,09,11.60
2015,09,14,05,10,11.60
2015,09,14,05,11,11.60
2015,09,14,05,12,11.60
2015,09,14,05,13,11.60
2015,09,14,05,14,11.60
2015,09,14,05,17,11.50
2015,09,14,05,18,11.50
2015,09,14,05,19,11.50
2015,09,14,05,20,11.40
2015,09,14,05,21,11.40
2015,09,14,05,22,11.40
2015,09,14,05,23,11.40
2015,09,14,05,24,11.40
2015,09,14,05,25,11.30
2015,09,14,05,26,11.30
2015,09,14,05,27,11.30
2015,09,14,05,28,11.30
2015,09,14,05,29,11.30
2015,09,14,05,31,11.30
2015,09,14,05,32,11.20
2015,09,14,05,33,11.20
2015,09,14,05,34,11.20
2015,09,14,05,35,11.20
2015,09,14,05,36,11.20
2015,09,14,05,37,11.20
2015,09,14,05,38,11.20
2015,09,14,05,39,11.20
2015,09,14,05,40,11.20
2015,09,14,05,41,11.10
2015,09,14,05,42,11.10
2015,09,14,05,43,11.10
2015,09,14,05,44,11.10
2015,09,14,05,46,11.10
2015,09,14,05,47,11.10
2015,09,14,05,48,11.10
2015,09,14,05,49,11.10
2015,09,14,05,50,11.10
2015,09,14,05,51,11.10
2015,09,14,05,52,11.20
2015,09,14,05,53,11.20
2015,09,14,05,55,11.20
2015,09,14,05,56,11.20
2015,09,14,05,57,11.20
2015,09,14,05,58,11.20
2015,09,14,05,59,11.20
2015,09,14,06,01,11.20
2015,09,14,06,02,11.20
2015,09,14,06,03,11.20
2015,09,14,06,04,11.20
2015,09,14,06,05,11.20
2015,09,14,06,06,11.20
2015,09,14,06,07,11.20
2015,09,14,06,08,11.20
2015,09,14,06,09,11.20
2015,09,14,06,12,11.30
2015,09,14,06,13,11.30
2015,09,14,06,14,11.30
2015,09,14,06,15,11.30
2015,09,14,06,17,11.30
2015,09,14,06,18,11.30
2015,09,14,06,19,11.40
2015,09,14,06,20,11.40
2015,09,14,06,21,11.40
2015,09,14,06,22,11.30
2015,09,14,06,23,11.30
2015,09,14,06,24,11.30
2015,09,14,06,25,11.30
2015,09,14,06,26,11.30
2015,09,14,06,27,11.30
2015,09,14,06,28,11.20
2015,09,14,06,29,11.20
2015,09,14,06,30,11.20
2015,09,14,06,31,11.10
2015,09,14,06,34,11.10
2015,09,14,06,35,11.00
2015,09,14,06,36,11.00
2015,09,14,06,37,10.90
2015,09,14,06,38,10.90
2015,09,14,06,39,10.90
2015,09,14,06,40,10.90
2015,09,14,06,41,10.80
2015,09,14,06,42,10.80
2015,09,14,06,43,10.80
2015,09,14,06,44,10.80
2015,09,14,06,45,10.80
2015,09,14,06,46,10.80
2015,09,14,06,48,10.70
2015,09,14,06,49,10.70
2015,09,14,06,50,10.70
2015,09,14,06,51,10.70
2015,09,14,06,52,10.70
2015,09,14,06,53,10.70
2015,09,14,06,54,10.60
2015,09,14,06,55,10.60
2015,09,14,06,56,10.60
2015,09,14,06,57,10.60
2015,09,14,06,58,10.60
2015,09,14,06,59,10.50
2015,09,14,07,00,10.50
2015,09,14,07,01,10.50
2015,09,14,07,02,10.40
2015,09,14,07,03,10.40
2015,09,14,07,04,10.40
2015,09,14,07,05,10.40
2015,09,14,07,06,10.40
2015,09,14,07,07,10.40
2015,09,14,07,08,10.40
2015,09,14,07,09,10.40
2015,09,14,07,10,10.30
2015,09,14,07,11,10.30
2015,09,14,07,12,10.30
2015,09,14,07,13,10.30
2015,09,14,07,14,10.30
2015,09,14,07,15,10.30
2015,09,14,07,16,10.30
2015,09,14,07,17,10.30
2015,09,14,07,19,10.30
2015,09,14,07,20,10.30
2015,09,14,07,21,10.30
2015,09,14,07,22,10.30
2015,09,14,07,24,10.30
2015,09,14,07,25,10.30
2015,09,14,07,26,10.30
2015,09,14,07,27,10.30
2015,09,14,07,28,10.30
2015,09,14,07,29,10.30
2015,09,14,07,30,10.30
2015,09,14,07,31,10.30
2015,09,14,07,32,10.30
2015,09,14,07,33,10.30
2015,09,14,07,34,10.30
2015,09,14,07,35,10.30
2015,09,14,07,36,10.30
2015,09,14,07,37,10.30
2015,09,14,07,38,10.30
2015,09,14,07,39,10.30
2015,09,14,07,40,10.30
2015,09,14,07,41,10.30
2015,09,14,07,42,10.30
2015,09,14,07,43,10.30
2015,09,14,07,44,10.30
2015,09,14,07,45,10.30
2015,09,14,07,46,10.30
2015,09,14,07,48,10.30
2015,09,14,07,49,10.30
2015,09,14,07,50,10.30
2015,09,14,07,51,10.30
2015,09,14,07,52,10.20
2015,09,14,07,53,10.20
2015,09,14,07,54,10.20
2015,09,14,07,55,10.20
2015,09,14,07,56,10.20
2015,09,14,07,57,10.20
2015,09,14,07,58,10.30
2015,09,14,07,59,10.30
2015,09,14,08,00,10.20
2015,09,14,08,02,10.20
2015,09,14,08,03,10.20
2015,09,14,08,04,10.30
2015,09,14,08,05,10.30
2015,09,14,08,06,10.30
2015,09,14,08,07,10.30
2015,09,14,08,08,10.30
2015,09,14,08,09,10.30
2015,09,14,08,10,10.30
2015,09,14,08,11,10.30
2015,09,14,08,12,10.30
2015,09,14,08,13,10.40
2015,09,14,08,14,10.40
2015,09,14,08,15,10.40
2015,09,14,08,16,10.40
2015,09,14,08,17,10.40
2015,09,14,08,18,10.40
2015,09,14,08,19,10.50
2015,09,14,08,20,10.60
2015,09,14,08,21,10.60
2015,09,14,08,22,10.60
2015,09,14,08,24,10.60
2015,09,14,08,25,10.60
2015,09,14,08,26,10.60
2015,09,14,08,27,10.60
2015,09,14,08,28,10.60
2015,09,14,08,29,10.70
2015,09,14,08,30,10.70
2015,09,14,08,31,10.70
2015,09,14,08,32,10.70
2015,09,14,08,33,10.70
2015,09,14,08,34,10.70
2015,09,14,08,35,10.80
2015,09,14,08,36,10.80
2015,09,14,08,37,10.80
2015,09,14,08,38,10.90
2015,09,14,08,39,10.90
2015,09,14,08,40,10.90
2015,09,14,08,41,11.00
2015,09,14,08,42,11.00
2015,09,14,08,43,11.10
2015,09,14,08,44,11.10
2015,09,14,08,46,11.10
2015,09,14,08,47,11.10
2015,09,14,08,48,11.20
2015,09,14,08,49,11.20
2015,09,14,08,50,11.20
2015,09,14,08,51,11.30
2015,09,14,08,52,11.30
2015,09,14,08,53,11.30
2015,09,14,08,54,11.30
2015,09,14,08,55,11.30
2015,09,14,08,56,11.30
2015,09,14,08,57,11.40
2015,09,14,08,59,11.30
2015,09,14,09,00,11.40
2015,09,14,09,01,11.40
2015,09,14,09,02,11.40
2015,09,14,09,03,11.40
2015,09,14,09,04,11.40
2015,09,14,09,05,11.40
2015,09,14,09,06,11.40
2015,09,14,09,07,11.40
2015,09,14,09,08,11.40
2015,09,14,09,09,11.40
2015,09,14,09,10,11.40
2015,09,14,09,11,11.40
2015,09,14,09,12,11.50
2015,09,14,09,13,11.50
2015,09,14,09,14,11.60
2015,09,14,09,15,11.60
2015,09,14,09,16,11.70
2015,09,14,09,17,11.70
2015,09,14,09,18,11.80
2015,09,14,09,23,12.10
2015,09,14,09,24,12.10
2015,09,14,09,25,12.10
2015,09,14,09,26,12.20
2015,09,14,09,27,12.20
2015,09,14,09,28,12.20
2015,09,14,09,29,12.20
2015,09,14,09,30,12.20
2015,09,14,09,31,12.30
2015,09,14,09,32,12.30
2015,09,14,09,33,12.30
2015,09,14,09,34,12.30
2015,09,14,09,35,12.30
2015,09,14,09,36,12.40
2015,09,14,09,37,12.40
2015,09,14,09,38,12.40
2015,09,14,09,39,12.40
2015,09,14,09,40,12.40
2015,09,14,09,41,12.40
2015,09,14,09,42,12.50
2015,09,14,09,43,12.50
2015,09,14,09,44,12.60
2015,09,14,09,45,12.60
2015,09,14,09,46,12.70
2015,09,14,09,47,12.80
2015,09,14,09,48,12.80
2015,09,14,09,49,12.90
2015,09,14,09,50,12.90
2015,09,14,09,51,13.00
2015,09,14,09,52,13.00
2015,09,14,09,53,13.10
2015,09,14,09,54,13.10
2015,09,14,09,56,13.20
2015,09,14,09,57,13.30
2015,09,14,09,58,13.30
2015,09,14,09,59,13.30
2015,09,14,10,00,13.40
2015,09,14,10,01,13.40
2015,09,14,10,02,13.50
2015,09,14,10,03,13.60
2015,09,14,10,04,13.60
2015,09,14,10,05,13.60
2015,09,14,10,06,13.60
2015,09,14,10,07,13.70
2015,09,14,10,08,13.70
2015,09,14,10,09,13.70
2015,09,14,10,10,13.80
2015,09,14,10,11,13.80
2015,09,14,10,12,13.80
2015,09,14,10,13,13.90
2015,09,14,10,14,13.90
2015,09,14,10,15,13.90
2015,09,14,10,16,14.00
2015,09,14,10,17,14.00
2015,09,14,10,18,14.10
2015,09,14,10,19,14.10
2015,09,14,10,20,14.10
2015,09,14,10,21,14.20
2015,09,14,10,22,14.20
2015,09,14,10,23,14.20
2015,09,14,10,24,14.30
2015,09,14,10,25,14.40
2015,09,14,10,26,14.40
2015,09,14,10,27,14.50
2015,09,14,10,28,14.60
2015,09,14,10,29,14.60
2015,09,14,10,30,14.70
2015,09,14,10,31,14.70
2015,09,14,10,32,14.80
2015,09,14,10,33,14.80
2015,09,14,10,34,14.80
2015,09,14,10,35,14.90
2015,09,14,10,36,14.90
2015,09,14,10,37,15.00
2015,09,14,10,38,15.00
2015,09,14,10,39,15.10
2015,09,14,10,40,15.10
2015,09,14,10,41,15.10
2015,09,14,10,44,15.20
2015,09,14,10,45,15.30
2015,09,14,10,46,15.30
2015,09,14,10,47,15.30
2015,09,14,10,48,15.40
2015,09,14,10,49,15.40
2015,09,14,10,50,15.40
2015,09,14,10,51,15.40
2015,09,14,10,52,15.50
2015,09,14,10,53,15.60
2015,09,14,10,54,15.60
2015,09,14,10,55,15.70
2015,09,14,10,56,15.70
2015,09,14,10,57,15.70
2015,09,14,10,58,15.70
2015,09,14,10,59,15.70
2015,09,14,11,00,15.70
2015,09,14,11,01,15.70
2015,09,14,11,02,15.70
2015,09,14,11,03,15.70
2015,09,14,11,04,15.80
2015,09,14,11,05,15.80
2015,09,14,11,08,15.90
2015,09,14,11,09,16.10
2015,09,14,11,10,16.20
2015,09,14,11,11,16.20
2015,09,14,11,12,16.20
2015,09,14,11,13,16.30
2015,09,14,11,14,16.30
2015,09,14,11,15,16.30
2015,09,14,11,16,16.30
2015,09,14,11,17,16.30
2015,09,14,11,18,16.30
2015,09,14,11,19,16.30
2015,09,14,11,20,16.30
2015,09,14,11,21,16.40
2015,09,14,11,22,16.40
2015,09,14,11,23,16.60
2015,09,14,11,24,16.70
2015,09,14,11,25,16.70
2015,09,14,11,27,16.70
2015,09,14,11,28,16.70
2015,09,14,11,29,16.70
2015,09,14,11,30,16.70
2015,09,14,11,31,16.80
2015,09,14,11,32,16.80
2015,09,14,11,33,16.80
2015,09,14,11,34,16.80
2015,09,14,11,35,16.80
2015,09,14,11,36,16.70
2015,09,14,11,37,16.70
2015,09,14,11,38,16.70
2015,09,14,11,39,16.70
2015,09,14,11,40,16.60
2015,09,14,11,41,16.60
2015,09,14,11,42,16.60
2015,09,14,11,44,16.50
2015,09,14,11,45,16.50
2015,09,14,11,46,16.50
2015,09,14,11,47,16.50
2015,09,14,11,48,16.60
2015,09,14,11,49,16.60
2015,09,14,11,50,16.60
2015,09,14,11,51,16.70
2015,09,14,11,52,16.70
2015,09,14,11,53,16.80
2015,09,14,11,54,16.80
2015,09,14,11,55,16.90
2015,09,14,11,56,16.90
2015,09,14,11,57,16.90
2015,09,14,11,58,16.90
2015,09,14,11,59,16.90
2015,09,14,12,00,16.90
2015,09,14,12,01,16.80
2015,09,14,12,02,16.80
2015,09,14,12,03,16.80
2015,09,14,12,04,16.90
2015,09,14,12,05,16.90
2015,09,14,12,06,17.00
2015,09,14,12,07,17.10
2015,09,14,12,08,17.10
2015,09,14,12,09,17.10
2015,09,14,12,11,17.10
2015,09,14,12,12,17.10
2015,09,14,12,13,17.20
2015,09,14,12,15,17.30
2015,09,14,12,16,17.30
2015,09,14,12,19,17.30
2015,09,14,12,20,17.20
2015,09,14,12,21,17.20
2015,09,14,12,22,17.10
2015,09,14,12,23,17.00
2015,09,14,12,24,16.90
2015,09,14,12,25,16.80
2015,09,14,12,26,16.80
2015,09,14,12,28,16.80
2015,09,14,12,29,16.80
2015,09,14,12,30,16.80
2015,09,14,12,31,16.80
2015,09,14,12,32,16.80
2015,09,14,12,33,16.70
2015,09,14,12,34,16.70
2015,09,14,12,35,16.70
2015,09,14,12,36,16.70
2015,09,14,12,37,16.70
2015,09,14,12,38,16.80
2015,09,14,12,39,16.80
2015,09,14,12,40,16.90
2015,09,14,12,41,16.90
2015,09,14,12,42,17.10
2015,09,14,12,43,17.10
2015,09,14,12,44,17.20
2015,09,14,12,45,17.30
2015,09,14,12,46,17.40
2015,09,14,12,47,17.40
2015,09,14,12,48,17.40
2015,09,14,12,49,17.40
2015,09,14,12,50,17.40
2015,09,14,12,51,17.40
2015,09,14,12,52,17.40
2015,09,14,12,53,17.50
2015,09,14,12,54,17.60
2015,09,14,12,55,17.70
2015,09,14,12,56,17.70
2015,09,14,12,57,17.70
2015,09,14,12,58,17.80
2015,09,14,12,59,17.90
2015,09,14,13,00,18.00
2015,09,14,13,01,18.10
2015,09,14,13,02,18.10
2015,09,14,13,03,18.20
2015,09,14,13,04,18.20
2015,09,14,13,05,18.30
2015,09,14,13,06,18.30
2015,09,14,13,07,18.30
2015,09,14,13,08,18.30
2015,09,14,13,09,18.30
2015,09,14,13,10,18.30
2015,09,14,13,12,18.10
2015,09,14,13,13,18.00
2015,09,14,13,14,17.90
2015,09,14,13,15,17.70
2015,09,14,13,16,17.60
2015,09,14,13,17,17.60
2015,09,14,13,18,17.60
2015,09,14,13,19,17.60
2015,09,14,13,20,17.60
2015,09,14,13,21,17.70
2015,09,14,13,22,17.70
2015,09,14,13,23,17.80
2015,09,14,13,24,17.90
2015,09,14,13,25,17.90
2015,09,14,13,26,18.00
2015,09,14,13,27,18.10
2015,09,14,13,30,18.20
2015,09,14,13,31,18.20
2015,09,14,13,32,18.20
2015,09,14,13,33,18.20
2015,09,14,13,34,18.30
2015,09,14,13,35,18.30
2015,09,14,13,36,18.30
2015,09,14,13,37,18.30
2015,09,14,13,40,18.00
2015,09,14,13,41,17.80
2015,09,14,13,42,17.80
2015,09,14,13,43,17.80
2015,09,14,13,44,17.70
2015,09,14,13,45,17.70
2015,09,14,13,46,17.60
2015,09,14,13,47,17.60
2015,09,14,13,48,17.60
2015,09,14,13,49,17.60
2015,09,14,13,50,17.60
2015,09,14,13,52,17.60
2015,09,14,13,53,17.60
2015,09,14,13,54,17.60
2015,09,14,13,55,17.60
2015,09,14,13,56,17.60
2015,09,14,13,57,17.60
2015,09,14,13,58,17.60
2015,09,14,13,59,17.60
2015,09,14,14,01,17.50
2015,09,14,14,02,17.50
2015,09,14,14,03,17.50
2015,09,14,14,04,17.60
2015,09,14,14,05,17.60
2015,09,14,14,06,17.60
2015,09,14,14,07,17.70
2015,09,14,14,08,17.70
2015,09,14,14,09,17.70
2015,09,14,14,10,17.70
2015,09,14,14,11,17.70
2015,09,14,14,12,17.80
2015,09,14,14,13,17.80
2015,09,14,14,14,17.90
2015,09,14,14,15,18.00
2015,09,14,14,16,18.10
2015,09,14,14,17,18.10
2015,09,14,14,18,18.20
2015,09,14,14,19,18.20
2015,09,14,14,20,18.30
2015,09,14,14,21,18.30
2015,09,14,14,22,18.30
2015,09,14,14,23,18.30
2015,09,14,14,24,18.30
2015,09,14,14,25,18.30
2015,09,14,14,26,18.30
2015,09,14,14,27,18.30
2015,09,14,14,28,18.30
2015,09,14,14,29,18.40
2015,09,14,14,30,18.40
2015,09,14,14,31,18.40
2015,09,14,14,32,18.40
2015,09,14,14,33,18.40
2015,09,14,14,34,18.40
2015,09,14,14,35,18.40
2015,09,14,14,36,18.40
2015,09,14,14,37,18.40
2015,09,14,14,40,18.40
2015,09,14,14,41,18.40
2015,09,14,14,42,18.40
2015,09,14,14,43,18.40
2015,09,14,14,44,18.40
2015,09,14,14,45,18.50
2015,09,14,14,46,18.50
2015,09,14,14,47,18.50
2015,09,14,14,48,18.40
2015,09,14,14,49,18.40
2015,09,14,14,50,18.40
2015,09,14,14,51,18.40
2015,09,14,14,53,18.50
2015,09,14,14,54,18.50
2015,09,14,14,55,18.60
2015,09,14,14,56,18.50
2015,09,14,14,57,18.50
2015,09,14,14,59,18.50
2015,09,14,15,00,18.40
2015,09,14,15,01,18.50
2015,09,14,15,02,18.60
2015,09,14,15,03,18.60
2015,09,14,15,04,18.70
2015,09,14,15,05,18.70
2015,09,14,15,06,18.80
2015,09,14,15,07,18.80
2015,09,14,15,08,18.80
2015,09,14,15,09,18.80
2015,09,14,15,10,18.80
2015,09,14,15,11,18.80
2015,09,14,15,12,18.70
2015,09,14,15,13,18.70
2015,09,14,15,14,18.60
2015,09,14,15,15,18.60
2015,09,14,15,16,18.50
2015,09,14,15,17,18.50
2015,09,14,15,18,18.40
2015,09,14,15,19,18.40
2015,09,14,15,20,18.40
2015,09,14,15,21,18.30
2015,09,14,15,22,18.30
2015,09,14,15,23,18.30
2015,09,14,15,24,18.30
2015,09,14,15,25,18.30
2015,09,14,15,26,18.30
2015,09,14,15,27,18.30
2015,09,14,15,28,18.30
2015,09,14,15,29,18.30
2015,09,14,15,30,18.30
2015,09,14,15,31,18.30
2015,09,14,15,32,18.30
2015,09,14,15,33,18.30
2015,09,14,15,34,18.30
2015,09,14,15,35,18.30
2015,09,14,15,36,18.30
2015,09,14,15,37,18.30
2015,09,14,15,38,18.40
2015,09,14,15,39,18.40
2015,09,14,15,40,18.50
2015,09,14,15,41,18.60
2015,09,14,15,42,18.60
2015,09,14,15,43,18.60
2015,09,14,15,44,18.60
2015,09,14,15,45,18.70
2015,09,14,15,46,18.80
2015,09,14,15,47,18.80
2015,09,14,15,48,18.90
2015,09,14,15,50,19.10
2015,09,14,15,51,19.10
2015,09,14,15,52,19.10
2015,09,14,15,54,19.00
2015,09,14,15,55,18.90
2015,09,14,15,56,18.90
2015,09,14,15,57,18.80
2015,09,14,15,58,18.80
2015,09,14,15,59,18.80
2015,09,14,16,00,18.80
2015,09,14,16,01,18.70
2015,09,14,16,02,18.80
2015,09,14,16,03,18.80
2015,09,14,16,04,18.80
2015,09,14,16,05,18.80
2015,09,14,16,07,18.70
2015,09,14,16,08,18.60
2015,09,14,16,09,18.60
2015,09,14,16,10,18.60
2015,09,14,16,11,18.60
2015,09,14,16,12,18.60
2015,09,14,16,13,18.50
2015,09,14,16,14,18.40
2015,09,14,16,15,18.40
2015,09,14,16,16,18.40
2015,09,14,16,17,18.40
2015,09,14,16,18,18.40
2015,09,14,16,19,18.40
2015,09,14,16,20,18.40
2015,09,14,16,21,18.50
2015,09,14,16,22,18.60
2015,09,14,16,23,18.60
2015,09,14,16,24,18.60
2015,09,14,16,25,18.50
2015,09,14,16,26,18.40
2015,09,14,16,27,18.40
2015,09,14,16,28,18.30
2015,09,14,16,29,18.30
2015,09,14,16,30,18.30
2015,09,14,16,31,18.30
2015,09,14,16,32,18.20
2015,09,14,16,33,18.20
2015,09,14,16,34,18.20
2015,09,14,16,35,18.20
2015,09,14,16,37,18.10
2015,09,14,16,39,17.90
2015,09,14,16,40,17.80
2015,09,14,16,41,17.80
2015,09,14,16,42,17.70
2015,09,14,16,43,17.70
2015,09,14,16,44,17.60
2015,09,14,16,45,17.60
2015,09,14,16,46,17.60
2015,09,14,16,47,17.50
2015,09,14,16,48,17.40
2015,09,14,16,49,17.30
2015,09,14,16,50,17.30
2015,09,14,16,51,17.30
2015,09,14,16,52,17.20
2015,09,14,16,53,17.10
2015,09,14,16,54,17.10
2015,09,14,16,55,17.00
2015,09,14,16,56,16.90
2015,09,14,16,57,16.90
2015,09,14,16,58,16.80
2015,09,14,16,59,16.80
2015,09,14,17,01,16.70
2015,09,14,17,02,16.70
2015,09,14,17,03,16.70
2015,09,14,17,04,16.60
2015,09,14,17,05,16.60
2015,09,14,17,07,16.30
2015,09,14,17,08,16.10
2015,09,14,17,09,16.10
2015,09,14,17,10,15.90
2015,09,14,17,11,15.90
2015,09,14,17,13,15.70
2015,09,14,17,14,15.70
2015,09,14,17,15,15.60
2015,09,14,17,16,15.60
2015,09,14,17,17,15.40
2015,09,14,17,18,15.30
2015,09,14,17,19,15.20
2015,09,14,17,20,15.20
2015,09,14,17,21,15.10
2015,09,14,17,22,14.90
2015,09,14,17,23,14.80
2015,09,14,17,24,14.80
2015,09,14,17,25,14.70
2015,09,14,17,26,14.60
2015,09,14,17,28,14.50
2015,09,14,17,29,14.40
2015,09,14,17,30,14.40
2015,09,14,17,31,14.30
2015,09,14,17,32,14.30
2015,09,14,17,33,14.30
2015,09,14,17,36,14.20
2015,09,14,17,37,14.20
2015,09,14,17,38,14.20
2015,09,14,17,39,14.20
2015,09,14,17,40,14.20
2015,09,14,17,41,14.20
2015,09,14,17,42,14.10
2015,09,14,17,43,14.10
2015,09,14,17,44,14.10
2015,09,14,17,45,14.10
2015,09,14,17,46,14.10
2015,09,14,17,47,14.00
2015,09,14,17,48,14.00
2015,09,14,17,49,13.90
2015,09,14,17,50,13.90
2015,09,14,17,51,13.90
2015,09,14,17,53,13.80
2015,09,14,17,54,13.80
2015,09,14,17,55,13.80
2015,09,14,17,56,13.70
2015,09,14,17,57,13.70
2015,09,14,17,58,13.70
2015,09,14,17,59,13.70
2015,09,14,18,00,13.70
2015,09,14,18,01,13.70
2015,09,14,18,02,13.70
2015,09,14,18,04,13.70
2015,09,14,18,05,13.70
2015,09,14,18,06,13.70
2015,09,14,18,07,13.70
2015,09,14,18,08,13.60
2015,09,14,18,10,13.50
2015,09,14,18,11,13.40
2015,09,14,18,12,13.40
2015,09,14,18,13,13.40
2015,09,14,18,14,13.30
2015,09,14,18,15,13.30
2015,09,14,18,16,13.30
2015,09,14,18,17,13.20
2015,09,14,18,18,13.20
2015,09,14,18,19,13.20
2015,09,14,18,20,13.20
2015,09,14,18,21,13.10
2015,09,14,18,22,13.10
2015,09,14,18,23,13.00
2015,09,14,18,24,12.90
2015,09,14,18,25,12.90
2015,09,14,18,26,12.90
2015,09,14,18,27,12.80
2015,09,14,18,28,12.80
2015,09,14,18,29,12.80
2015,09,14,18,30,12.80
2015,09,14,18,31,12.80
2015,09,14,18,33,12.80
2015,09,14,18,34,12.80
2015,09,14,18,35,12.80
2015,09,14,18,36,12.80
2015,09,14,18,37,12.80
2015,09,14,18,38,12.80
2015,09,14,18,40,12.80
2015,09,14,18,41,12.80
2015,09,14,18,42,12.80
2015,09,14,18,43,12.80
2015,09,14,18,45,12.80
2015,09,14,18,46,12.80
2015,09,14,18,47,12.70
2015,09,14,18,48,12.70
2015,09,14,18,49,12.70
2015,09,14,18,50,12.70